Estación de Polizones INIA

Ultimos registro cada 15 minutos 39
Estación Fecha / Hora Temperatura Humedad Lluvia Velocidad Dirección Radiación Presion
39 Polizones INIA 02-05-2026 09:30 0,2 98 0 0 0 151 1009
38 Polizones INIA 02-05-2026 09:15 -0,4 98,7 0 0 0 224 1009
37 Polizones INIA 02-05-2026 09:00 -1,1 98,4 0 0 0 115 1009
36 Polizones INIA 02-05-2026 08:45 -1,6 98,2 0 0 0 68 1009
35 Polizones INIA 02-05-2026 08:30 -2,1 98,3 0 0 0 50 1009
34 Polizones INIA 02-05-2026 08:15 -2,3 98,2 0 0 0 37 1009
33 Polizones INIA 02-05-2026 08:00 -2,4 98,1 0 0 0 16 1008
32 Polizones INIA 02-05-2026 07:45 -2,5 98,1 0 0 0 4 1008
31 Polizones INIA 02-05-2026 07:30 -2,3 97,7 0 0 0 0 1009
30 Polizones INIA 02-05-2026 07:15 -2 97,9 0 0 0 0 1009
29 Polizones INIA 02-05-2026 07:00 -2,1 98 0 0 0 0 1009
28 Polizones INIA 02-05-2026 06:45 -1,9 97,9 0 0 0 0 1009
27 Polizones INIA 02-05-2026 06:30 -1,8 98 0 0 0 0 1009
26 Polizones INIA 02-05-2026 06:15 -1,9 98,2 0 0 0 0 1010
25 Polizones INIA 02-05-2026 06:00 -2 98,2 0 0 0 0 1010
24 Polizones INIA 02-05-2026 05:45 -1,4 97,4 0 0 0 0 1010
23 Polizones INIA 02-05-2026 05:30 -1,6 97,8 0 0 0 0 1010
22 Polizones INIA 02-05-2026 05:15 -1,5 97,8 0 0 0 0 1010
21 Polizones INIA 02-05-2026 05:00 -1,4 98,2 0 0 0 0 1011
20 Polizones INIA 02-05-2026 04:45 -1,8 98,2 0 0 0 0 1011
19 Polizones INIA 02-05-2026 04:30 -1,8 97,9 0 0 0 0 1011
18 Polizones INIA 02-05-2026 04:15 -1,5 97,6 0 0 0 0 1011
17 Polizones INIA 02-05-2026 04:00 -1,4 97,8 0 0 0 0 1011
16 Polizones INIA 02-05-2026 03:45 -1,3 97,7 0 0 0 0 1012
15 Polizones INIA 02-05-2026 03:30 -1,4 97,6 0 0 0 0 1012
14 Polizones INIA 02-05-2026 03:15 -1,8 97,9 0 0 0 0 1012
13 Polizones INIA 02-05-2026 03:00 -1,4 97,4 0 0 0 0 1012
12 Polizones INIA 02-05-2026 02:45 -1,5 98 0 0 0 0 1012
11 Polizones INIA 02-05-2026 02:30 -1,2 97,3 0 0 0 0 1012
10 Polizones INIA 02-05-2026 02:15 -1,2 97,6 0 0 0 0 1012
9 Polizones INIA 02-05-2026 02:00 -0,6 97,4 0 0 0 0 1012
8 Polizones INIA 02-05-2026 01:45 -0,9 97,9 0 0 0 0 1012
7 Polizones INIA 02-05-2026 01:30 -0,8 97,1 0 0 0 0 1012
6 Polizones INIA 02-05-2026 01:15 -0,3 97 0 0 0 0 1012
5 Polizones INIA 02-05-2026 01:00 -0,5 97,6 0 0 0 0 1012
4 Polizones INIA 02-05-2026 00:45 -0,1 96,9 0 0 0 0 1012
3 Polizones INIA 02-05-2026 00:30 0,1 97,2 0 0 0 0 1013
2 Polizones INIA 02-05-2026 00:15 0,2 96,8 0 0 0 0 1013
1 Polizones INIA 02-05-2026 00:00 0,3 96,9 0 0 0 0 1013